Enid, OK

8:16 PM CDT on May 25, 2017 (GMT -0500)
Enid Woodring Municipal

Weather History for KWDG - January, 2014

Change the Weather History Date:

Friday, January 24, 2014

  Actual Average Record
Temperature  
Mean Temperature 24 °F -  
Max Temperature 48 °F 44 °F 73 °F (2017)
Min Temperature 1 °F 27 °F 1 °F (2014)
Degree Days  
Heating Degree Days 40    
Moisture  
Dew Point 8 °F    
Average Humidity 57    
Maximum Humidity 85    
Minimum Humidity 27    
Precipitation  
Precipitation 0.00 in - - ()
Sea Level Pressure  
Sea Level Pressure 30.35 in    
Wind  
Wind Speed 7 mph (SSW)    
Max Wind Speed 32 mph    
Max Gust Speed 38 mph    
Visibility 10 miles    
Events      
Averages and records for this station are not official NWS values.
T = Trace of Precipitation, MM = Missing Value Source: NWS Daily Summary

Daily Weather History Graph

Daily Weather History Graph

Search for Another Location

Airport or City:

Trip Planner

Search our weather history database for the weather conditions in past years. The results will help you decide how hot, cold, wet, or windy it might be!

Date:

Astronomy

Jan. 24, 2014 Rise Set
Actual Time 7:37 AM CST 5:48 PM CST
Civil Twilight 7:10 AM CST 6:16 PM CST
Nautical Twilight 6:39 AM CST 6:47 PM CST
Astronomical Twilight 6:08 AM CST 7:18 PM CST
Moon 1:09 AM CST (1/24) 12:06 PM CST (1/24)
Length of Visible Light 11h 06m
Length of Day
10h 11m
Last Quarter, 44% of the Moon is Illuminated
Jan 24
Last Quarter
Jan 30
New
Feb 6
First Quarter
Feb 14
Full
Feb 22
Last Quarter

Hourly Weather History & Observations

Time (CST) Temp. Windchill Dew Point Humidity Pressure Visibility Wind Dir Wind Speed Gust Speed Precip Events Conditions
12:15 AM 5.0 °F - -0.4 °F 78% 30.74 in 10.0 mi Calm Calm - N/A   Clear
12:35 AM 5.0 °F - -0.4 °F 78% 30.74 in 10.0 mi Calm Calm - N/A   Clear
12:55 AM 3.2 °F - -2.2 °F 78% 30.73 in 10.0 mi Calm Calm - N/A   Clear
1:15 AM 3.2 °F - -0.4 °F 85% 30.72 in 10.0 mi Calm Calm - N/A   Clear
1:35 AM 3.2 °F - -0.4 °F 85% 30.71 in 10.0 mi Calm Calm - N/A   Clear
1:55 AM 1.4 °F -6.2 °F -4.0 °F 78% 30.70 in 10.0 mi SSW 3.5 mph - N/A   Clear
2:15 AM 1.4 °F -6.2 °F -4.0 °F 78% 30.69 in 10.0 mi SSW 3.5 mph - N/A   Clear
2:35 AM 1.4 °F - -4.0 °F 78% 30.69 in 10.0 mi Calm Calm - N/A   Clear
2:55 AM 1.4 °F -9.9 °F -4.0 °F 78% 30.67 in 10.0 mi South 5.8 mph - N/A   Clear
3:15 AM 1.4 °F -9.9 °F -4.0 °F 78% 30.67 in 10.0 mi South 5.8 mph - N/A   Clear
3:35 AM 3.2 °F -6.2 °F -4.0 °F 72% 30.66 in 10.0 mi SSW 4.6 mph - N/A   Clear
3:55 AM 3.2 °F -7.8 °F -4.0 °F 72% 30.64 in 10.0 mi South 5.8 mph - N/A   Clear
4:15 AM 3.2 °F -7.8 °F -4.0 °F 72% 30.62 in 10.0 mi South 5.8 mph - N/A   Clear
4:35 AM 3.2 °F -9.1 °F -2.2 °F 78% 30.61 in 10.0 mi South 6.9 mph - N/A   Clear
4:55 AM 3.2 °F -9.1 °F -4.0 °F 72% 30.60 in 10.0 mi South 6.9 mph - N/A   Clear
6:15 AM 6.8 °F -10.0 °F -0.4 °F 72% 30.57 in 10.0 mi South 13.8 mph - N/A   Clear
6:50 AM 8.6 °F -9.5 °F 1.4 °F 73% 30.56 in 10.0 mi South 17.3 mph - N/A   Clear
7:50 AM 8.6 °F -8.3 °F 1.4 °F 73% 30.54 in 10.0 mi South 15.0 mph - N/A   Clear
8:50 AM 15.8 °F 0.9 °F 5.0 °F 62% 30.49 in 10.0 mi South 15.0 mph 23.0 mph N/A   Clear
9:50 AM 23.0 °F 8.3 °F 3.2 °F 43% 30.44 in 10.0 mi South 19.6 mph 28.8 mph N/A   Clear
10:50 AM 32.0 °F 18.6 °F 3.2 °F 30% 30.39 in 10.0 mi SSW 25.3 mph 34.5 mph N/A   Clear
11:50 AM 35.6 °F 23.4 °F 8.6 °F 33% 30.35 in 10.0 mi SSW 25.3 mph 34.5 mph N/A   Clear
12:50 PM 41.0 °F 29.5 °F 14.0 °F 33% 30.27 in 10.0 mi SSW 32.2 mph 38.0 mph N/A   Clear
1:50 PM 44.6 °F 35.7 °F 15.8 °F 31% 30.21 in 10.0 mi SSW 24.2 mph 32.2 mph N/A   Clear
2:50 PM 46.4 °F 38.1 °F 15.8 °F 29% 30.16 in 10.0 mi SSW 24.2 mph 32.2 mph N/A   Clear
3:50 PM 48.2 °F - 15.8 °F 27% 30.12 in 10.0 mi SSW 24.2 mph 32.2 mph N/A   Clear
4:50 PM 48.2 °F - 17.6 °F 30% 30.11 in 10.0 mi SSW 24.2 mph 32.2 mph N/A   Clear
5:50 PM 48.2 °F - 15.8 °F 27% 30.09 in 10.0 mi SSW 17.3 mph - N/A   Partly Cloudy
6:50 PM 41.0 °F 33.1 °F 15.8 °F 36% 30.09 in 10.0 mi South 15.0 mph - N/A   Scattered Clouds
7:50 PM 35.6 °F 27.5 °F 15.8 °F 44% 30.08 in 10.0 mi South 11.5 mph - N/A   Scattered Clouds
8:15 PM 37.4 °F 30.3 °F 17.6 °F 45% 30.07 in 10.0 mi SSW 10.4 mph - N/A   Clear
8:35 PM 37.4 °F 31.4 °F 17.6 °F 45% 30.06 in 10.0 mi SSW 8.1 mph - N/A   Clear
8:50 PM 37.4 °F 31.4 °F 15.8 °F 41% 30.06 in 10.0 mi SSW 8.1 mph - N/A   Scattered Clouds
8:55 PM 37.4 °F 30.3 °F 17.6 °F 45% 30.06 in 10.0 mi SW 10.4 mph - N/A   Clear
9:15 PM 37.4 °F 32.1 °F 17.6 °F 45% 30.05 in 10.0 mi SSW 6.9 mph - N/A   Clear
9:35 PM 35.6 °F 29.9 °F 17.6 °F 48% 30.06 in 10.0 mi SW 6.9 mph - N/A   Clear
9:55 PM 35.6 °F 30.7 °F 17.6 °F 48% 30.04 in 10.0 mi SSW 5.8 mph - N/A   Clear
10:15 PM 33.8 °F 28.6 °F 17.6 °F 52% 30.04 in 10.0 mi SSW 5.8 mph - N/A   Clear
10:35 PM 32.0 °F 27.5 °F 15.8 °F 51% 30.04 in 10.0 mi South 4.6 mph - N/A   Clear
10:55 PM 32.0 °F 25.6 °F 17.6 °F 55% 30.03 in 10.0 mi South 6.9 mph - N/A   Clear
11:15 PM 32.0 °F 25.6 °F 17.6 °F 55% 30.02 in 10.0 mi South 6.9 mph - N/A   Clear
11:35 PM 33.8 °F 27.7 °F 17.6 °F 52% 30.02 in 10.0 mi South 6.9 mph - N/A   Clear
11:55 PM 33.8 °F 27.7 °F 17.6 °F 52% 30.02 in 10.0 mi South 6.9 mph - N/A   Clear